This is the latest recevied weather packets stored in our database for station/object N3WMC. If no packets are shown the sender has not sent any weather packets the latest 10 day(s).
| Time | Temp. | Humidity | Pressure | Rain* | Wind** | Luminosity | Snow |
|---|---|---|---|---|---|---|---|
| 1777822507 | 11.67° C | 41% | 1017.8 hPa | 0 mm | - | 655 W/m² | - |
| 1777822204 | 11.67° C | 40% | 1017.8 hPa | 0 mm | - | 650 W/m² | - |
| 1777821901 | 11.11° C | 39% | 1018 hPa | 0 mm | - | 642 W/m² | - |
| 1777821599 | 11.11° C | 41% | 1018 hPa | 0 mm | - | 634 W/m² | - |
| 1777821297 | 11.11° C | 42% | 1017.9 hPa | 0 mm | - | 629 W/m² | - |
| 1777820994 | 11.67° C | 43% | 1017.9 hPa | 0 mm | - | 619 W/m² | - |
| 1777820690 | 10.56° C | 40% | 1018 hPa | 0 mm | - | 612 W/m² | - |
| 1777820386 | 10.56° C | 40% | 1018.2 hPa | 0 mm | - | 604 W/m² | - |
| 1777820084 | 11.11° C | 42% | 1017.9 hPa | 0 mm | - | 556 W/m² | - |
| 1777819781 | 10.56° C | 43% | 1018.1 hPa | 0 mm | - | 549 W/m² | - |
| 1777819479 | 10° C | 44% | 1018.2 hPa | 0 mm | - | 579 W/m² | - |
| 1777819177 | 10° C | 49% | 1018.1 hPa | 0 mm | - | 223 W/m² | - |
| 1777818873 | 10° C | 50% | 1018.2 hPa | 0 mm | - | 491 W/m² | - |
| 1777818569 | 10° C | 49% | 1018.2 hPa | 0 mm | - | 86 W/m² | - |
| 1777818267 | 10° C | 49% | 1018.4 hPa | 0 mm | - | 551 W/m² | - |
| 1777817963 | 10° C | 50% | 1018.3 hPa | 0 mm | - | 171 W/m² | - |
| 1777817660 | 9.44° C | 52% | 1018.2 hPa | 0 mm | - | 90 W/m² | - |
| 1777817357 | 8.89° C | 52% | 1018.3 hPa | 0 mm | - | 82 W/m² | - |
| 1777817054 | 9.44° C | 53% | 1018.3 hPa | 0 mm | - | 68 W/m² | - |
| 1777816750 | 9.44° C | 56% | 1018.4 hPa | 0 mm | - | 56 W/m² | - |
| 1777816448 | 8.89° C | 56% | 1018.4 hPa | 0 mm | - | 257 W/m² | - |
| 1777816145 | 8.33° C | 57% | 1018.3 hPa | 0 mm | - | 143 W/m² | - |
| 1777815843 | 8.89° C | 59% | 1018.2 hPa | 0 mm | - | 78 W/m² | - |
| 1777815540 | 7.78° C | 64% | 1018.4 hPa | 0 mm | - | 79 W/m² | - |
| 1777815238 | 7.78° C | 61% | 1018.6 hPa | 0 mm | - | 48 W/m² | - |
* Rain latest hour (hover to see other rain measurements)
** Current wind speed in m/s (hover to see current wind gust speed)